Location: Góry Miechowskie
(50.3599°N, 20.1803°E)
Time: 07:19:15
(UTC+00:00)

NOSS 3-2 (A) - Visible Passes

Search period start: 08 September 2024 00:00
Search period end: 18 September 2024 00:00
Orbit: 703 x 1502 km, 63.4° (Epoch: 12 August)

Date Brightness Start Highest point End Pass type
(mag) Time Alt. Az. Time Alt. Az. Time Alt. Az.
09 Sep 4.6 02:56:45 10° S 03:01:31 37° ESE 03:07:01 10° NE visible
10 Sep 5.2 02:12:10 10° SSE 02:16:11 23° ESE 02:20:40 10° ENE visible
11 Sep 5.5 01:28:33 10° SE 01:31:00 13° ESE 01:33:35 10° ENE visible
11 Sep 3.5 03:15:08 10° SSW 03:20:21 73° SE 03:26:39 10° NE visible
12 Sep 4.0 02:30:08 12° SSW 02:34:46 47° ESE 02:40:38 10° NE visible
13 Sep 4.7 01:46:10 16° SSE 01:49:23 29° ESE 01:54:26 10° ENE visible
13 Sep 3.5 03:34:15 10° WSW 03:39:35 64° NW 03:46:04 10° NE visible
14 Sep 5.2 01:02:08 15° SE 01:04:07 18° ESE 01:07:50 10° ENE visible
14 Sep 3.3 02:49:31 17° SW 02:53:45 89° SE 03:00:08 10° NE visible
15 Sep 3.6 02:05:26 29° SSW 02:08:05 59° SE 02:14:11 10° NE visible
16 Sep 4.1 01:21:19 32° SSE 01:22:36 37° ESE 01:28:06 10° NE visible
16 Sep 3.6 03:08:41 15° WSW 03:13:06 55° NW 03:19:33 10° NE visible
17 Sep 4.8 00:37:09 23° ESE 00:37:16 23° ESE 00:41:44 10° ENE visible
17 Sep 3.2 02:24:31 32° SW 02:27:11 77° NW 02:33:38 10° NE visible
17 Sep 5.6 23:52:57 13° E 23:52:57 13° E 23:54:37 10° ENE visible
